| time (UTC) | temp F | wind direction | speed knots | gust knots | rain 1hr in | rain 24hr in | rain mn in | humidity % | barometer mb |
| 20260506032729 | 68 | 105 | 0.0 | 1.7 | 0.00 | 0.00 | 0.00 | 81 | 1016.7 |
| 20260506032207 | 68 | 106 | 0.0 | 0.0 | 0.00 | 0.00 | 0.00 | 80 | 1016.8 |
| 20260506031210 | 68 | 105 | 0.0 | 0.9 | 0.00 | 0.00 | 0.00 | 80 | 1016.7 |
| 20260506030208 | 69 | 106 | 0.0 | 0.0 | 0.00 | 0.00 | 0.00 | 79 | 1016.7 |
| 20260506024723 | 69 | 106 | 0.0 | 0.0 | 0.00 | 0.00 | 0.00 | 77 | 1016.7 |
| 20260506023722 | 70 | 106 | 0.0 | 1.7 | 0.00 | 0.00 | 0.00 | 75 | 1016.7 |
| 20260506022719 | 71 | 105 | 0.9 | 2.6 | 0.00 | 0.00 | 0.00 | 74 | 1016.5 |
| 20260506022157 | 71 | 106 | 0.9 | 2.6 | 0.00 | 0.00 | 0.00 | 74 | 1016.4 |
| 20260506020723 | 71 | 106 | 0.9 | 2.6 | 0.00 | 0.00 | 0.00 | 73 | 1016.2 |
| 20260506015717 | 71 | 102 | 0.9 | 1.7 | 0.00 | 0.00 | 0.00 | 73 | 1016.2 |
| 20260506014716 | 72 | 102 | 0.9 | 2.6 | 0.00 | 0.00 | 0.00 | 71 | 1016.0 |
| 20260506013720 | 73 | 102 | 0.9 | 2.6 | 0.00 | 0.00 | 0.00 | 69 | 1015.9 |
| 20260506012713 | 74 | 92 | 2.6 | 6.1 | 0.00 | 0.00 | 0.00 | 68 | 1015.8 |
| 20260506011711 | 74 | 93 | 1.7 | 5.2 | 0.00 | 0.00 | 0.00 | 67 | 1015.7 |
| 20260506010711 | 75 | 106 | 2.6 | 7.0 | 0.00 | 0.00 | 0.00 | 66 | 1015.6 |
| 20260506005711 | 75 | 119 | 2.6 | 6.1 | 0.00 | 0.00 | 0.00 | 65 | 1015.5 |
| 20260506005151 | 76 | 123 | 2.6 | 7.8 | 0.00 | 0.00 | 0.00 | 63 | 1015.2 |
| 20260506003709 | 76 | 103 | 3.5 | 10.4 | 0.00 | 0.00 | 0.00 | 62 | 1015.1 |
| 20260506003207 | 77 | 73 | 4.3 | 9.6 | 0.00 | 0.00 | 0.00 | 61 | 1015.1 |
| 20260506001705 | 77 | 121 | 2.6 | 7.8 | 0.00 | 0.00 | 0.00 | 60 | 1015.0 |
| 20260506001140 | 77 | 117 | 4.3 | 11.3 | 0.00 | 0.00 | 0.00 | 60 | 1015.1 |
| 20260505235705 | 78 | 96 | 5.2 | 12.2 | 0.00 | 0.00 | 0.00 | 60 | 1014.8 |
| 20260505234704 | 78 | 127 | 3.5 | 7.0 | 0.00 | 0.00 | 0.00 | 60 | 1014.7 |
| 20260505233707 | 79 | 105 | 3.5 | 11.3 | 0.00 | 0.00 | 0.00 | 59 | 1014.7 |
| 20260505232701 | 79 | 119 | 3.5 | 8.7 | 0.00 | 0.00 | 0.00 | 58 | 1014.7 |
| 20260505231658 | 80 | 117 | 6.1 | 13.9 | 0.00 | 0.00 | 0.00 | 57 | 1014.8 |
| 20260505230700 | 80 | 155 | 7.0 | 13.9 | 0.00 | 0.00 | 0.00 | 57 | 1014.7 |
| 20260505230147 | 81 | 96 | 5.2 | 12.2 | 0.00 | 0.00 | 0.00 | 57 | 1014.6 |
| 20260505224700 | 82 | 132 | 6.1 | 11.3 | 0.00 | 0.00 | 0.00 | 56 | 1014.6 |
| 20260505223652 | 83 | 101 | 6.1 | 11.3 | 0.00 | 0.00 | 0.00 | 55 | 1014.6 |
| 20260505222654 | 83 | 109 | 5.2 | 10.4 | 0.00 | 0.00 | 0.00 | 53 | 1014.4 |
| 20260505221653 | 85 | 86 | 4.3 | 10.4 | 0.00 | 0.00 | 0.00 | 53 | 1014.5 |
| 20260505220654 | 85 | 100 | 5.2 | 11.3 | 0.00 | 0.00 | 0.00 | 52 | 1014.3 |
| 20260505215654 | 86 | 125 | 3.5 | 9.6 | 0.00 | 0.00 | 0.00 | 51 | 1014.3 |
| 20260505214640 | 85 | 106 | 4.3 | 11.3 | 0.00 | 0.00 | 0.00 | 51 | 1014.3 |
| 20260505213639 | 86 | 59 | 4.3 | 8.7 | 0.00 | 0.00 | 0.00 | 51 | 1014.2 |
| 20260505212640 | 86 | 90 | 4.3 | 11.3 | 0.00 | 0.00 | 0.00 | 51 | 1014.2 |
| 20260505211639 | 86 | 133 | 4.3 | 11.3 | 0.00 | 0.00 | 0.00 | 51 | 1014.3 |
| 20260505210641 | 86 | 59 | 2.6 | 7.8 | 0.00 | 0.00 | 0.00 | 50 | 1014.2 |
| 20260505205633 | 85 | 131 | 3.5 | 7.8 | 0.00 | 0.00 | 0.00 | 51 | 1014.2 |
| 20260505205113 | 85 | 155 | 3.5 | 8.7 | 0.00 | 0.00 | 0.00 | 50 | 1014.2 |
| 20260505203632 | 86 | 113 | 3.5 | 7.8 | 0.00 | 0.00 | 0.00 | 50 | 1014.3 |
| 20260505203548 | 85 | 137 | 5.2 | 10.4 | 0.00 | 0.00 | 0.00 | 52 | 1014.3 |
| 20260505201618 | 85 | 150 | 6.1 | 15.6 | 0.00 | 0.00 | 0.00 | 52 | 1014.3 |
| 20260505200617 | 85 | 106 | 4.3 | 12.2 | 0.00 | 0.00 | 0.00 | 51 | 1014.4 |
| 20260505195618 | 87 | 106 | 3.5 | 7.0 | 0.00 | 0.00 | 0.00 | 45 | 1014.5 |
| 20260505194619 | 88 | 51 | 2.6 | 7.0 | 0.00 | 0.00 | 0.00 | 48 | 1014.5 |
| 20260505193619 | 86 | 119 | 4.3 | 10.4 | 0.00 | 0.00 | 0.00 | 49 | 1014.7 |
| 20260505192615 | 87 | 19 | 4.3 | 9.6 | 0.00 | 0.00 | 0.00 | 48 | 1014.8 |
| 20260505192055 | 87 | 146 | 5.2 | 10.4 | 0.00 | 0.00 | 0.00 | 50 | 1014.9 |
| 20260505190617 | 87 | 117 | 4.3 | 11.3 | 0.00 | 0.00 | 0.00 | 49 | 1015.0 |
| 20260505185614 | 86 | 79 | 2.6 | 7.8 | 0.00 | 0.00 | 0.00 | 52 | 1015.1 |
| 20260505184613 | 84 | 117 | 2.6 | 7.0 | 0.00 | 0.00 | 0.00 | 52 | 1015.2 |
| 20260505183614 | 84 | 61 | 2.6 | 7.0 | 0.00 | 0.00 | 0.00 | 53 | 1015.3 |
| 20260505182615 | 84 | 79 | 3.5 | 7.8 | 0.00 | 0.00 | 0.00 | 53 | 1015.4 |
| 20260505181615 | 84 | 84 | 2.6 | 8.7 | 0.00 | 0.00 | 0.00 | 52 | 1015.6 |
| 20260505180614 | 84 | 98 | 2.6 | 8.7 | 0.00 | 0.00 | 0.00 | 53 | 1015.7 |
| 20260505175615 | 85 | 59 | 3.5 | 7.8 | 0.00 | 0.00 | 0.00 | 52 | 1015.7 |
| 20260505174613 | 85 | 31 | 4.3 | 10.4 | 0.00 | 0.00 | 0.00 | 51 | 1015.9 |
| 20260505174050 | 87 | 67 | 3.5 | 7.8 | 0.00 | 0.00 | 0.00 | 51 | 1015.8 |
| 20260505172616 | 87 | 92 | 4.3 | 8.7 | 0.00 | 0.00 | 0.00 | 50 | 1016.0 |
| 20260505171613 | 87 | 29 | 3.5 | 7.8 | 0.00 | 0.00 | 0.00 | 53 | 1016.0 |
| 20260505170614 | 84 | 96 | 3.5 | 8.7 | 0.00 | 0.00 | 0.00 | 51 | 1016.1 |
| 20260505165615 | 85 | 115 | 5.2 | 11.3 | 0.00 | 0.00 | 0.00 | 51 | 1016.2 |
| 20260505164613 | 83 | 95 | 3.5 | 9.6 | 0.00 | 0.00 | 0.00 | 54 | 1016.2 |
| 20260505163613 | 85 | 74 | 3.5 | 10.4 | 0.00 | 0.00 | 0.00 | 52 | 1016.2 |
| 20260505162616 | 85 | 89 | 3.5 | 8.7 | 0.00 | 0.00 | 0.00 | 53 | 1016.2 |
| 20260505161604 | 83 | 182 | 4.3 | 9.6 | 0.00 | 0.00 | 0.00 | 52 | 1016.2 |
| 20260505160605 | 85 | 88 | 4.3 | 8.7 | 0.00 | 0.00 | 0.00 | 55 | 1016.2 |
| 20260505152602 | 83 | 154 | 4.3 | 12.2 | 0.00 | 0.00 | 0.00 | 54 | 1016.3 |
| 20260505152043 | 82 | 105 | 4.3 | 10.4 | 0.00 | 0.00 | 0.00 | 59 | 1016.4 |
| 20260505151047 | 82 | 120 | 6.1 | 12.2 | 0.00 | 0.00 | 0.00 | 57 | 1016.4 |
| 20260505140549 | 79 | 94 | 5.2 | 10.4 | 0.00 | 0.00 | 0.00 | 67 | 1015.9 |
| 20260505125010 | 73 | 124 | 3.5 | 7.0 | 0.00 | 0.00 | 0.00 | 79 | 1016.0 |
| 20260505124022 | 73 | 96 | 1.7 | 6.1 | 0.00 | 0.00 | 0.00 | 80 | 1016.1 |
| 20260505122538 | 72 | 96 | 1.7 | 5.2 | 0.00 | 0.00 | 0.00 | 84 | 1016.1 |
| 20260505122014 | 70 | 95 | 0.9 | 4.3 | 0.00 | 0.00 | 0.00 | 88 | 1016.1 |
| 20260505120534 | 69 | 35 | 0.9 | 3.5 | 0.00 | 0.00 | 0.00 | 91 | 1016.0 |
| 20260505115533 | 67 | 287 | 0.0 | 1.7 | 0.00 | 0.00 | 0.00 | 93 | 1015.8 |
| 20260505114530 | 65 | 287 | 0.0 | 0.0 | 0.00 | 0.00 | 0.00 | 93 | 1015.9 |
| 20260505113532 | 64 | 286 | 0.0 | 0.0 | 0.00 | 0.00 | 0.00 | 94 | 1015.6 |
| 20260505112528 | 64 | 286 | 0.0 | 0.0 | 0.00 | 0.00 | 0.00 | 94 | 1015.5 |
| 20260505111527 | 63 | 286 | 0.0 | 0.0 | 0.00 | 0.00 | 0.00 | 94 | 1015.2 |
| 20260505110530 | 63 | 48 | 0.0 | 0.9 | 0.00 | 0.00 | 0.00 | 93 | 1015.3 |
| 20260505101514 | 62 | 48 | 0.0 | 0.0 | 0.00 | 0.00 | 0.00 | 93 | 1014.9 |
| 20260505100512 | 62 | 48 | 0.0 | 0.0 | 0.00 | 0.00 | 0.00 | 93 | 1014.7 |
| 20260505095510 | 62 | 48 | 0.0 | 0.0 | 0.00 | 0.00 | 0.00 | 93 | 1014.6 |
| 20260505094943 | 62 | 48 | 0.0 | 0.0 | 0.00 | 0.00 | 0.00 | 93 | 1014.5 |
| 20260505093511 | 62 | 48 | 0.0 | 0.0 | 0.00 | 0.00 | 0.00 | 93 | 1014.4 |
| 20260505092510 | 62 | 48 | 0.0 | 0.0 | 0.00 | 0.00 | 0.00 | 93 | 1014.4 |
| 20260505091945 | 63 | 48 | 0.0 | 0.0 | 0.00 | 0.00 | 0.00 | 93 | 1014.6 |
| 20260505090515 | 63 | 48 | 0.0 | 1.7 | 0.00 | 0.00 | 0.00 | 93 | 1014.3 |
| 20260505085501 | 64 | 48 | 0.0 | 0.9 | 0.00 | 0.00 | 0.00 | 93 | 1014.3 |
| 20260505084500 | 64 | 48 | 0.0 | 0.9 | 0.00 | 0.00 | 0.00 | 93 | 1014.3 |
| 20260505083501 | 63 | 48 | 0.0 | 0.9 | 0.00 | 0.00 | 0.00 | 92 | 1014.3 |
| 20260505082502 | 63 | 48 | 0.0 | 0.9 | 0.00 | 0.00 | 0.00 | 92 | 1014.3 |
| 20260505081501 | 63 | 48 | 0.0 | 0.0 | 0.00 | 0.00 | 0.00 | 92 | 1014.3 |
| 20260505080926 | 63 | 48 | 0.0 | 0.0 | 0.00 | 0.00 | 0.00 | 92 | 1014.3 |
| 20260505075451 | 63 | 48 | 0.0 | 0.0 | 0.00 | 0.00 | 0.00 | 91 | 1014.4 |
| 20260505074941 | 63 | 48 | 0.0 | 0.0 | 0.00 | 0.00 | 0.00 | 91 | 1014.3 |
| 20260505073450 | 64 | 48 | 0.0 | 0.9 | 0.00 | 0.00 | 0.00 | 91 | 1014.5 |
| 20260505072452 | 64 | 48 | 0.0 | 2.6 | 0.00 | 0.00 | 0.00 | 91 | 1014.6 |
| 20260505071451 | 63 | 48 | 0.9 | 2.6 | 0.00 | 0.00 | 0.00 | 91 | 1014.4 |
| 20260505070448 | 63 | 48 | 0.0 | 1.7 | 0.00 | 0.00 | 0.00 | 90 | 1014.6 |
| 20260505065449 | 64 | 48 | 0.0 | 0.0 | 0.00 | 0.00 | 0.00 | 90 | 1014.6 |
| 20260505064448 | 64 | 48 | 0.0 | 0.0 | 0.00 | 0.00 | 0.00 | 89 | 1014.9 |
| 20260505063939 | 65 | 48 | 0.0 | 0.9 | 0.00 | 0.00 | 0.00 | 88 | 1014.9 |
| 20260505062921 | 65 | 48 | 0.0 | 1.7 | 0.00 | 0.00 | 0.00 | 88 | 1015.0 |
| 20260505061450 | 65 | 48 | 0.9 | 1.7 | 0.00 | 0.00 | 0.00 | 87 | 1015.1 |
| 20260505060446 | 66 | 48 | 0.0 | 1.7 | 0.00 | 0.00 | 0.00 | 86 | 1015.3 |
| 20260505055447 | 66 | 48 | 0.9 | 1.7 | 0.00 | 0.00 | 0.00 | 86 | 1015.4 |
| 20260505054447 | 66 | 48 | 0.0 | 1.7 | 0.00 | 0.00 | 0.00 | 86 | 1015.5 |
| 20260505053448 | 66 | 48 | 0.0 | 1.7 | 0.00 | 0.00 | 0.00 | 85 | 1015.6 |
| 20260505052446 | 67 | 48 | 0.0 | 1.7 | 0.00 | 0.00 | 0.00 | 85 | 1015.8 |
| 20260505051434 | 67 | 48 | 0.0 | 0.0 | 0.00 | 0.00 | 0.00 | 84 | 1015.9 |
| 20260505050434 | 67 | 48 | 0.0 | 1.7 | 0.00 | 0.00 | 0.00 | 85 | 1016.1 |
| 20260505041433 | 68 | 10 | 1.7 | 3.5 | 0.00 | 0.00 | 0.00 | 83 | 1016.1 |
| 20260505040433 | 67 | 82 | 0.9 | 2.6 | 0.00 | 0.00 | 0.00 | 84 | 1016.0 |
| 20260505035430 | 67 | 82 | 0.9 | 2.6 | 0.00 | 0.00 | 0.00 | 83 | 1016.2 |
| 20260505034431 | 67 | 82 | 0.9 | 1.7 | 0.00 | 0.00 | 0.00 | 83 | 1016.1 |